sat.trackr.live / text

‹ back to catalog

JILIN-1 09

NORAD 43943 · 2019-005B

PAYLOAD ACTIVE UNKNOWN

§ Identity

Operator
Country
PRC
Launch date
2019-01-21
Launch site
JSC
Launch vehicle
Mass (kg)
RCS (m²)

External: N2YO · Heavens-Above · Gunter

§ Orbital elements

Epoch: 2026-05-25T05:03:45.972864Z

Period
94.72 min
Inclination
97.4723°
Eccentricity
0.0003139
Mean motion
15.20275710 rev/d
Perigee alt
502.8 km
Apogee alt
507.2 km
Semi-major
6,883.1 km
B*
2.1928e-4
RAAN
240.3754°
Arg perigee
141.6700°
Mean anomaly
218.4758°
Rev number
40,565

§ Raw data

JILIN-1 091 43943U 19005B   26145.21094876  .00004692  00000+0  21928-3 0  99982 43943  97.4723 240.3754 0003139 141.6700 218.4758 15.20275710405652

JSON: /api/v1/satellites/43943 · /tle

For live sub-satellite position, see the globe view (requires WebGL).

§ Visibility from observer

Set your observer location to see the next 7 days of passes ≥ 10°. The values pass through the URL so the page stays shareable.

No JS? Fill the form by hand. The geolocation button needs JavaScript.

§ Radio — SatNOGS DB

ModeDescriptionDownlinkUplink
BPSK Telemetry 2.284 GHz

1 transmitter · refreshed weekly from db.satnogs.org